カタログに戻る

STARLINK-4794

運用中通信VLEO
NORAD 53853·PAYLOAD·🇺🇸 United States

打ち上げ Sep 19, 2022 から Cape Canaveral Space Force Station

Loading…

次のパス (今後24時間)

TLE

最新Source: CelesTrak SupGP

元期: Sep 15, 2026, 02:22 UTC

1 53853C 22114AM  26258.09909722  .00023036  00000+0  14448-2 0  2589
2 53853  53.1580 162.8964 0001585  86.7131 153.0825 15.08816861    18

AllMySatでSTARLINK-4794をリアルタイム追跡

Download on the App Store